SCOUT X-4 DEB, 977

Orbit data source: Space-Track

SCOUT X-4 DEB, 977 is space debris in LEO originally from a launch on Sat, 10 Oct 1964 UTC launched from the Air Force Western Test Range (AFWTR). Debris objects in space refer to the collection of defunct objects orbiting the Earth. Examples of debris include non-operational satellites, rocket bodies, and fragments generated from explosions, collisions, or faulty payload assembly.

Loading next visibility...
Identifier
977, 1964-064D
Orbit
LEO
Country
Flag of USUS
Related business
Manufacturer
APL
Mission
Spacecraft
Bus & Motor
Unknown
Mass
Unknown
Launch date (UTC)
1964-10-10 (61 years ago)
Launch vehicle
Unknown
Launch site
Air Force Western Test Range (AFWTR)
Object type
Payload
Rocket body
Debris
Shape & HBR
Unknown
Radar Cross Section
Small (<0.1 m²)

Expand to show TLE details & history
Last TLE update: 1 day ago

TLE from 1 day ago
0 SCOUT X-4 DEB
1 00977U 64064D   25258.49517554  .00000312  00000-0  28061-3 0  9991
2 00977  80.0414  79.7213 0126946 148.5624 212.3195 13.78923613 51573
Epoch: 2025-09-15T11:53Z
TLE epoch observation values (Epoch: 2025-09-15T11:53:03.166Z)
Latitude
0.00001°
Longitude
-93.2409°
Altitude
1,049.678 km
Speed
7.288 km/s
True Right ascension
05h 18m 53s
True Declination
0° 00' 00"
Sunlit
Object was in daylight at epoch
Visualization orbit readout
Latitude
Unknown
Longitude
Unknown
Altitude
Unknown
Speed
Unknown
Apparent Right ascension
Unknown
Apparent Declination
Unknown
Sunlit
N/A
Visualization observer readout
Local Sidereal Time
11:34:37
Azimuth
Unknown
Elevation
Unknown
Doppler factor
Unknown
Orbital elements
Apogee altitude
1,058.201 km
Perigee altitude
871.765 km
Semi-major axis
7,343.12 km
Eccentricity
0.01269
Inclination
80.0414°
RAAN
79.7213°
Arg. of periapsis
148.5624°
True anomaly
211.55208°
Mean anomaly
212.3195°
Eccentric anomaly
211.93477°
Mean motion
3.44923 °/min
Orbital period
104.37 mins
BSTAR
0.00028061
Loading maneuver chart data...
Computing Atmospheric mass density...
Loading historical data...
Loading historical data...
Loading historical data...
Loading historical data...
Loading historical data...
Loading historical data...
Loading historical data...
Other satellites on launch #64 in the year 1964 (1964-10-10 UTC)

Documentation

Showing up to 5 results
|